Temperature
-1 -2 -2 -2 -2 -2 -2 -3 -3 -3 -3 -3 -3 -3 -3 -3 -4 -4 -3 -3 -3 -3 -4 -4 -4 -4 -4 -4 -4 -4 -4 -4 -4 -4 -4 -3 -3 -3 -2 -2 -2 -2 -2
-2 -2 -2 -3 -3 -3 -3 -3 -3 -4 -4 -4 -4 -4 -4 -4 -4 -4 -4 -4 -4 -4 -4 -4 -4 -4 -4 -4 -4 -4 -4 -4 -5 -5 -4 -4 -4 -3 -3 -3 -3 -3 -3
-2 -3 -3 -3 -3 -3 -4 -4 -4 -4 -4 -4 -4 -5 -5 -5 -5 -5 -5 -5 -5 -5 -5 -5 -5 -5 -5 -5 -5 -5 -5 -5 -5 -5 -5 -5 -4 -4 -4 -4 -4 -3 -3
-3 -3 -3 -4 -4 -4 -4 -4 -5 -5 -5 -5 -5 -5 -5 -5 -6 -6 -6 -6 -6 -6 -6 -6 -6 -5 -5 -5 -5 -5 -5 -5 -5 -6 -5 -5 -5 -5 -5 -5 -4 -4 -4
-4 -4 -4 -4 -4 -5 -5 -5 -5 -5 -6 -6 -6 -6 -6 -6 -6 -6 -7 -7 -7 -6 -6 -6 -6 -6 -6 -6 -6 -6 -6 -6 -6 -6 -6 -6 -6 -5 -5 -5 -5 -5 -4
-4 -4 -5 -5 -5 -5 -6 -6 -6 -6 -6 -6 -6 -6 -7 -7 -7 -7 -7 -7 -7 -7 -7 -7 -7 -7 -6 -6 -6 -6 -6 -6 -6 -6 -6 -6 -6 -6 -6 -6 -6 -6 -5
-5 -5 -5 -5 -6 -6 -6 -6 -6 -7 -7 -7 -7 -7 -7 -7 -7 -8 -8 -8 -8 -8 -8 -8 -7 -7 -7 -7 -7 -7 -7 -7 -7 -7 -7 -6 -6 -6 -6 -6 -6 -6 -6
-5 -6 -6 -6 -6 -6 -7 -7 -7 -7 -7 -7 -7 -8 -8 -8 -8 -8 -8 -8 -8 -8 -8 -8 -8 -8 -8 -7 -7 -7 -7 -7 -7 -7 -7 -7 -6 -6 -6 -6 -6 -6 -6
-6 -6 -7 -7 -7 -7 -7 -7 -8 -8 -8 -8 -8 -8 -8 -8 -8 -9 -9 -9 -9 -9 -9 -9 -9 -8 -8 -8 -8 -8 -8 -7 -7 -7 -7 -7 -7 -7 -7 -7 -7 -7 -7
-7 -7 -7 -8 -8 -8 -8 -8 -8 -8 -8 -8 -9 -9 -9 -9 -9 -9 -9 -9 -9 -9 -9 -9 -9 -9 -9 -9 -9 -8 -8 -8 -8 -8 -8 -7 -7 -7 -7 -7 -7 -7 -7
-7 -8 -8 -8 -8 -8 -9 -9 -9 -9 -9 -9 -9 -9 -9 -9 -9 -10 -10 -10 -10 -10 -10 -10 -10 -9 -9 -9 -9 -9 -9 -9 -8 -8 -8 -8 -8 -8 -7 -7 -7 -8 -8
-8 -8 -8 -8 -9 -9 -9 -9 -9 -9 -9 -10 -10 -10 -10 -10 -10 -10 -10 -10 -10 -10 -10 -10 -10 -10 -10 -10 -10 -10 -9 -9 -9 -9 -9 -9 -8 -8 -8 -8 -8 -8 -8
-8 -9 -9 -9 -9 -9 -10 -10 -10 -10 -10 -11 -11 -11 -11 -11 -11 -11 -11 -11 -11 -11 -11 -11 -10 -10 -10 -10 -10 -10 -10 -10 -10 -10 -10 -9 -9 -9 -9 -9 -8 -8 -8
-9 -9 -9 -10 -10 -10 -10 -10 -11 -11 -11 -11 -12 -12 -12 -12 -11 -11 -11 -11 -11 -11 -11 -11 -11 -11 -11 -11 -11 -11 -11 -11 -11 -11 -11 -10 -10 -9 -9 -9 -9 -9 -9
-9 -10 -10 -10 -10 -10 -11 -11 -11 -11 -12 -12 -12 -12 -12 -12 -12 -12 -12 -12 -12 -12 -11 -11 -11 -11 -11 -11 -11 -11 -11 -11 -11 -11 -11 -11 -10 -10 -10 -10 -10 -9 -9
-10 -10 -10 -11 -11 -11 -11 -11 -12 -12 -12 -12 -13 -13 -13 -13 -13 -12 -12 -12 -12 -12 -12 -12 -12 -12 -12 -12 -12 -12 -12 -12 -12 -12 -11 -11 -11 -11 -11 -10 -10 -10 -10
-11 -11 -11 -11 -11 -12 -12 -12 -12 -12 -12 -13 -13 -13 -13 -13 -13 -13 -13 -13 -13 -13 -13 -13 -13 -13 -13 -13 -13 -13 -13 -12 -12 -12 -12 -12 -11 -11 -11 -11 -11 -11 -11
-11 -11 -12 -12 -12 -12 -12 -13 -13 -13 -13 -13 -13 -13 -13 -13 -13 -13 -13 -13 -13 -13 -13 -13 -13 -13 -13 -13 -13 -13 -13 -13 -13 -13 -12 -12 -12 -12 -12 -11 -11 -11 -11
-12 -12 -12 -12 -12 -13 -13 -13 -13 -13 -13 -13 -13 -13 -13 -14 -14 -14 -14 -14 -14 -14 -14 -14 -14 -14 -14 -14 -14 -13 -13 -13 -13 -13 -13 -13 -12 -12 -12 -12 -12 -12 -11
-12 -12 -12 -13 -13 -13 -13 -13 -13 -14 -14 -14 -14 -14 -14 -14 -14 -14 -14 -14 -14 -14 -14 -14 -14 -14 -14 -14 -14 -14 -14 -13 -13 -13 -13 -13 -13 -13 -12 -12 -12 -12 -12
-12 -13 -13 -13 -13 -13 -14 -14 -14 -14 -14 -14 -14 -14 -15 -15 -15 -14 -14 -14 -14 -15 -14 -14 -14 -14 -14 -14 -14 -14 -14 -14 -14 -13 -13 -13 -13 -13 -13 -13 -12 -12 -12
-13 -13 -13 -13 -14 -14 -14 -14 -14 -14 -14 -14 -14 -14 -15 -15 -15 -15 -15 -15 -15 -15 -15 -15 -14 -14 -14 -14 -14 -14 -14 -14 -14 -14 -13 -13 -13 -13 -13 -13 -12 -12 -12
-13 -13 -14 -14 -14 -14 -14 -14 -14 -14 -14 -15 -15 -15 -15 -15 -15 -15 -15 -15 -15 -14 -15 -15 -14 -14 -14 -14 -14 -14 -14 -14 -14 -14 -14 -13 -13 -13 -13 -13 -13 -12 -12
-14 -14 -14 -14 -14 -14 -15 -15 -15 -15 -15 -15 -15 -15 -15 -15 -15 -15 -15 -15 -15 -15 -15 -14 -14 -14 -14 -14 -14 -14 -14 -14 -14 -14 -13 -13 -13 -13 -13 -13 -13 -13 -12
-14 -14 -15 -15 -15 -15 -15 -15 -15 -15 -15 -15 -15 -15 -15 -15 -15 -15 -15 -15 -15 -15 -15 -14 -14 -14 -14 -14 -14 -14 -14 -14 -13 -13 -13 -13 -13 -13 -13 -13 -13 -13 -13
-15 -15 -15 -15 -15 -15 -15 -15 -15 -15 -15 -15 -15 -15 -15 -15 -15 -15 -15 -15 -15 -15 -15 -14 -14 -14 -14 -14 -14 -14 -14 -13 -13 -13 -13 -13 -13 -13 -13 -13 -13 -13 -13
Wind_Speed
4 4 3 2 2 1 1 1 2 2 3 3 3 4 4 4 4 3 4 5 4 4 4 5 6 5 5 5 5 5 5 5 8 8 6 5 7 7 11 12 12 12 12
4 4 3 2 2 1 1 2 2 2 3 3 4 4 4 4 4 4 5 5 5 5 6 6 7 6 6 6 5 6 6 6 7 10 8 6 7 7 8 9 11 11 11
4 4 3 2 2 2 2 2 2 2 3 4 4 4 5 5 5 5 5 5 5 6 6 6 7 7 7 6 7 7 7 7 6 8 9 7 6 6 7 9 9 9 11
3 3 3 3 3 2 2 2 2 3 3 3 4 4 5 5 6 6 6 5 6 7 7 7 8 7 8 8 8 8 7 7 7 8 8 8 7 6 6 7 8 6 8
3 3 2 2 2 2 2 2 2 3 3 3 4 4 5 5 5 6 6 6 6 7 7 8 8 10 12 10 9 7 7 7 7 7 8 8 8 6 7 7 9 8 8
3 2 2 2 1 2 2 2 3 3 3 3 4 5 5 6 9 11 9 6 7 7 8 8 9 10 12 14 16 15 13 10 8 8 9 10 10 9 7 8 9 9 9
2 1 1 1 2 2 3 2 3 3 3 4 5 5 6 7 11 12 12 8 6 7 7 8 8 8 11 8 12 15 14 16 15 11 11 11 11 10 10 11 10 10 10
1 0 1 1 2 2 2 3 3 3 4 4 5 6 6 8 12 12 12 7 6 7 7 7 8 8 9 10 9 9 9 10 12 10 9 11 11 10 11 11 10 10 9
1 1 2 2 2 2 3 4 3 3 4 5 5 5 6 8 12 12 12 5 6 7 8 8 8 8 13 15 11 9 10 10 12 15 16 16 17 17 14 8 8 8 10
1 2 2 2 2 3 4 4 4 4 5 5 6 6 6 7 11 12 11 5 6 7 7 7 11 12 15 15 10 9 10 10 9 10 11 12 12 12 14 9 8 9 8
2 2 2 3 3 3 3 3 4 4 5 5 6 6 6 8 10 12 12 6 6 7 7 7 8 14 16 16 14 9 12 12 8 7 8 8 8 7 8 8 8 8 9
2 2 3 3 3 3 3 4 4 4 4 5 6 7 6 7 9 11 13 13 11 7 7 7 8 15 16 16 13 13 16 13 6 6 6 7 7 7 7 8 10 10 11
2 2 3 3 3 3 4 4 4 3 4 5 5 6 6 6 7 13 14 15 14 9 8 13 14 16 15 11 13 15 13 7 6 6 7 8 7 7 7 7 8 9 10
1 2 3 3 4 4 3 4 4 4 4 5 6 6 7 6 6 7 7 9 11 10 9 11 14 14 11 11 11 9 7 6 7 7 7 7 7 7 7 6 7 6 6
2 2 3 3 4 4 4 3 5 4 6 7 5 6 6 7 9 13 10 8 7 8 8 5 5 5 6 6 6 6 6 6 7 6 7 7 7 7 7 5 5 5 6
2 3 2 3 3 3 4 5 8 8 11 12 11 10 9 11 15 15 16 15 15 14 8 5 5 5 6 7 7 7 6 6 6 6 7 7 7 7 7 6 5 6 6
3 3 3 3 3 4 4 5 6 8 10 11 12 14 13 15 15 16 16 15 14 12 6 5 5 6 6 7 7 7 7 7 6 6 7 6 6 6 6 6 6 6 6
3 4 4 3 4 4 4 5 5 6 7 7 10 14 15 15 15 15 15 11 8 7 5 5 6 6 6 7 7 7 7 6 6 6 6 6 6 6 6 6 6 6 7
3 3 3 3 3 4 4 5 5 6 6 7 7 9 13 14 14 14 12 6 6 6 6 6 6 6 7 7 7 7 7 7 7 6 6 6 6 6 6 6 6 9 8
3 6 5 3 3 4 4 5 5 5 6 6 7 7 8 9 7 8 6 6 6 6 6 7 7 7 7 7 7 7 7 7 7 7 7 6 6 6 7 8 7 7 7
3 4 6 5 4 4 5 5 5 6 6 7 7 9 12 7 7 7 7 6 6 6 7 7 7 7 7 7 6 7 8 7 7 7 7 7 7 7 7 7 8 8 8
3 3 4 4 4 5 5 5 5 6 7 8 7 9 14 8 6 7 7 7 6 6 7 7 7 7 7 7 7 7 8 8 8 7 7 7 7 8 8 8 8 7 7
3 4 4 4 5 7 7 6 6 6 7 7 8 8 7 7 7 7 7 7 7 7 8 8 7 8 9 9 9 8 8 9 8 8 8 8 8 8 8 8 9 8 8
3 4 5 5 5 5 6 6 6 7 7 7 7 7 7 7 7 8 7 7 7 8 9 9 9 10 12 12 11 11 12 13 12 11 11 10 9 9 8 8 8 9 8
3 4 5 5 5 6 6 6 7 7 7 7 7 7 7 7 7 7 7 7 8 8 9 10 10 10 13 14 14 14 16 18 17 13 11 9 10 9 9 9 8 8 8
4 5 5 5 5 5 6 6 7 7 7 7 7 7 7 7 7 7 7 7 7 8 9 10 11 13 15 14 16 17 18 18 17 17 13 8 8 8 8 8 9 8 8
Wind_Direction
175 173 170 177 177 172 200 241 265 291 305 305 307 308 307 305 305 302 297 294 287 291 290 289 286 282 277 269 266 263 259 257 268 276 270 274 275 281 292 287 286 280 274
176 170 174 176 174 190 229 254 273 282 293 298 300 299 300 304 301 293 292 295 283 283 281 279 283 285 284 275 269 266 262 259 261 275 279 268 265 266 277 280 284 283 278
172 170 176 184 194 218 243 265 276 281 292 301 300 296 298 299 298 294 287 287 279 274 273 272 275 277 281 282 275 271 266 267 261 267 277 272 267 264 270 279 275 276 279
170 174 186 198 210 227 245 268 275 279 282 288 291 291 294 295 295 293 291 287 283 280 276 271 270 269 271 276 276 271 269 264 262 264 274 277 270 262 259 273 278 270 276
167 177 200 209 212 229 255 268 279 286 289 284 286 290 291 289 285 286 286 286 285 286 285 279 275 275 277 279 279 275 273 269 266 267 271 279 276 271 265 269 274 279 272
165 188 209 210 227 249 261 267 277 283 288 287 285 284 288 292 295 296 295 287 286 286 289 289 284 282 284 286 285 285 282 275 270 268 271 270 273 272 271 270 269 274 276
159 194 218 227 248 262 275 283 283 283 287 285 285 284 283 287 296 297 296 296 288 286 287 289 291 291 295 291 287 285 284 278 274 270 267 265 269 269 270 269 263 263 269
94 292 268 261 267 281 285 284 284 283 282 283 285 283 283 290 300 301 300 298 288 284 283 283 285 288 286 288 284 284 283 279 276 275 268 267 269 266 262 264 267 270 274
17 324 309 293 283 288 290 289 287 288 288 285 288 286 286 293 301 302 302 293 288 284 284 285 287 285 288 292 289 285 287 283 284 282 281 282 283 284 280 276 271 269 274
322 314 316 310 298 290 286 289 288 287 288 295 300 295 287 287 298 302 304 293 290 290 288 285 288 291 293 293 287 281 283 285 284 287 287 286 284 282 282 269 263 263 270
329 333 331 321 305 291 290 292 293 297 301 299 298 298 291 293 301 303 302 299 290 291 292 290 289 294 294 294 293 286 285 292 289 286 287 283 279 273 268 263 257 254 260
345 344 332 320 312 313 302 301 301 298 299 299 300 301 295 294 301 302 301 299 297 290 288 288 287 293 294 295 296 295 296 300 295 290 288 284 281 279 273 269 268 263 259
349 330 321 322 320 318 310 304 304 299 294 297 295 296 300 301 299 302 301 300 297 294 288 292 294 296 299 300 299 300 302 299 291 284 283 283 278 276 278 277 275 272 269
320 313 316 319 319 318 311 306 302 295 292 292 292 294 297 299 298 298 295 296 296 294 291 292 296 301 304 303 302 300 295 290 289 285 286 287 289 284 278 276 279 276 277
305 304 310 312 306 308 307 295 298 281 283 293 290 290 297 296 299 306 310 305 301 294 302 299 299 301 302 300 296 292 291 292 291 288 288 289 289 288 285 283 279 279 274
298 299 295 298 299 301 303 308 310 308 309 307 306 304 302 303 309 312 312 311 311 311 312 307 299 297 295 298 297 294 290 287 287 288 287 286 285 286 287 286 278 271 272
272 286 289 295 300 302 303 306 310 315 315 314 314 314 312 314 314 314 314 314 314 315 309 299 296 298 297 298 298 294 290 289 288 289 288 287 286 285 283 283 279 276 276
278 285 292 283 288 292 295 297 299 305 311 311 315 316 317 317 317 318 319 319 313 312 299 294 293 295 295 296 297 298 296 295 293 290 288 285 284 282 280 280 278 275 276
281 279 284 286 287 289 294 296 297 297 299 303 306 313 317 317 316 317 321 314 303 301 296 291 289 290 292 292 293 293 293 292 291 289 289 286 284 281 278 276 277 280 280
280 292 300 294 293 296 296 297 298 297 298 299 301 304 310 312 311 312 310 303 299 297 295 292 291 290 290 289 290 292 292 292 291 288 287 287 285 280 277 276 274 274 274
281 290 302 301 293 293 293 293 294 294 294 295 294 299 308 308 303 300 300 299 295 294 295 293 293 293 291 289 287 288 286 287 287 286 284 283 283 281 277 274 274 271 273
277 280 285 287 292 293 293 291 291 290 291 292 295 299 307 305 297 296 295 294 292 288 289 289 288 286 286 285 286 286 283 281 281 282 281 279 279 279 278 274 271 272 272
282 285 287 289 290 297 301 294 290 290 291 291 293 296 298 296 294 293 293 294 293 291 292 289 286 287 288 286 282 278 279 278 277 275 278 280 278 276 275 274 272 271 271
277 280 283 288 290 289 290 292 291 291 292 292 293 294 294 293 292 292 292 292 292 291 291 289 285 284 287 289 286 282 278 278 277 273 268 269 274 275 274 273 274 273 271
280 281 283 285 288 290 291 291 292 293 293 294 295 296 296 296 296 295 293 292 291 292 292 291 288 287 289 289 288 287 288 290 289 282 273 269 271 273 273 272 273 276 273
284 282 283 284 284 286 288 291 292 294 294 295 295 295 297 298 298 298 298 297 297 296 296 295 291 290 291 293 293 294 296 296 297 295 286 275 272 273 273 272 273 273 274
Height
1508 1509 1509 1509 1509 1509 1508 1508 1507 1506 1505 1504 1502 1501 1499 1498 1497 1495 1493 1492 1490 1489 1488 1487 1487 1487 1486 1485 1484 1484 1483 1482 1478 1475 1476 1476 1476 1475 1474 1474 1473 1472 1471
1505 1506 1506 1506 1506 1506 1505 1505 1504 1503 1501 1500 1499 1497 1495 1494 1492 1490 1488 1487 1485 1484 1484 1483 1482 1481 1480 1479 1479 1478 1477 1476 1474 1470 1469 1469 1469 1469 1468 1467 1466 1465 1465
1502 1502 1503 1503 1502 1502 1502 1501 1500 1499 1498 1496 1495 1493 1491 1489 1488 1486 1484 1482 1481 1480 1479 1478 1477 1476 1475 1474 1473 1472 1471 1470 1469 1466 1463 1463 1462 1462 1461 1460 1459 1459 1458
1499 1499 1499 1499 1499 1498 1498 1497 1496 1495 1493 1492 1491 1489 1487 1485 1483 1481 1480 1478 1477 1475 1474 1473 1472 1471 1469 1468 1467 1466 1465 1464 1463 1461 1458 1457 1456 1456 1456 1454 1452 1452 1451
1495 1495 1496 1496 1495 1495 1494 1493 1492 1491 1489 1488 1487 1485 1483 1481 1479 1477 1476 1474 1472 1471 1470 1468 1467 1466 1464 1463 1462 1461 1460 1458 1457 1455 1453 1451 1450 1450 1449 1448 1446 1445 1444
1492 1492 1492 1492 1492 1491 1490 1489 1488 1487 1485 1484 1482 1481 1479 1477 1475 1474 1472 1470 1468 1467 1465 1463 1462 1460 1459 1457 1457 1455 1455 1453 1451 1450 1448 1446 1444 1444 1444 1442 1441 1439 1436
1489 1489 1489 1488 1488 1487 1486 1485 1484 1482 1481 1479 1478 1476 1474 1473 1471 1469 1468 1466 1464 1462 1460 1458 1456 1454 1453 1451 1449 1448 1447 1447 1446 1445 1442 1440 1439 1438 1437 1436 1435 1433 1430
1486 1486 1485 1485 1484 1483 1482 1481 1480 1478 1477 1475 1473 1471 1469 1468 1466 1464 1463 1461 1459 1457 1455 1453 1451 1448 1447 1445 1443 1441 1440 1439 1439 1438 1436 1433 1433 1432 1431 1430 1428 1426 1424
1483 1483 1482 1481 1480 1479 1478 1477 1476 1474 1472 1471 1469 1467 1465 1463 1461 1459 1458 1455 1453 1451 1449 1447 1445 1443 1441 1440 1438 1436 1433 1432 1432 1430 1429 1427 1426 1425 1425 1423 1421 1420 1416
1480 1480 1479 1478 1477 1475 1474 1473 1472 1470 1468 1466 1464 1462 1460 1458 1456 1455 1453 1451 1448 1446 1444 1442 1440 1438 1436 1435 1433 1430 1428 1426 1424 1422 1421 1420 1419 1417 1417 1416 1414 1413 1410
1477 1477 1476 1474 1473 1472 1471 1469 1468 1466 1464 1462 1460 1458 1456 1454 1451 1450 1448 1446 1443 1441 1438 1436 1434 1433 1431 1429 1427 1425 1422 1421 1418 1416 1413 1412 1410 1409 1408 1407 1407 1406 1404
1475 1474 1472 1471 1470 1468 1467 1465 1464 1462 1459 1457 1455 1453 1451 1449 1447 1445 1443 1441 1439 1436 1433 1431 1429 1427 1425 1423 1421 1419 1417 1415 1412 1409 1407 1404 1403 1401 1400 1400 1399 1398 1396
1472 1471 1469 1468 1466 1465 1463 1461 1459 1457 1455 1453 1450 1448 1446 1444 1442 1440 1438 1436 1434 1431 1428 1426 1424 1422 1419 1417 1415 1413 1410 1408 1405 1403 1400 1398 1397 1395 1394 1392 1391 1390 1388
1469 1468 1466 1465 1463 1462 1460 1458 1455 1453 1451 1449 1446 1444 1442 1439 1437 1435 1433 1430 1428 1426 1423 1420 1418 1416 1413 1411 1408 1406 1404 1402 1400 1397 1395 1393 1391 1389 1387 1386 1384 1383 1381
1466 1465 1463 1462 1460 1458 1456 1454 1452 1450 1448 1446 1443 1441 1438 1435 1433 1432 1429 1426 1423 1421 1418 1415 1412 1409 1407 1404 1402 1400 1398 1396 1394 1392 1389 1387 1385 1383 1381 1380 1379 1377 1375
1463 1462 1460 1458 1456 1454 1452 1450 1448 1446 1444 1441 1439 1437 1434 1431 1429 1426 1424 1421 1418 1416 1413 1409 1407 1404 1402 1399 1396 1394 1392 1390 1388 1386 1384 1382 1380 1378 1376 1375 1373 1372 1370
1460 1459 1457 1455 1453 1451 1448 1446 1443 1441 1439 1437 1434 1431 1429 1426 1423 1421 1418 1415 1413 1410 1407 1404 1402 1400 1397 1395 1392 1389 1387 1385 1383 1381 1379 1377 1375 1373 1371 1369 1368 1366 1364
1457 1456 1454 1452 1450 1447 1445 1442 1440 1437 1434 1431 1429 1426 1424 1421 1418 1415 1413 1410 1407 1405 1402 1400 1397 1395 1393 1390 1387 1385 1382 1380 1378 1375 1373 1371 1370 1368 1366 1364 1362 1361 1359
1454 1452 1450 1448 1446 1444 1441 1439 1436 1433 1430 1427 1424 1421 1419 1416 1413 1411 1408 1405 1402 1400 1398 1395 1393 1391 1388 1385 1383 1380 1378 1375 1373 1370 1368 1366 1364 1362 1360 1359 1357 1355 1354
1450 1449 1447 1445 1442 1440 1437 1435 1432 1429 1426 1423 1420 1417 1414 1411 1408 1405 1403 1400 1398 1395 1393 1391 1388 1386 1383 1380 1378 1375 1373 1370 1367 1365 1363 1361 1359 1357 1355 1353 1352 1350 1349
1447 1445 1443 1441 1438 1436 1434 1431 1428 1425 1422 1419 1416 1413 1411 1408 1404 1401 1398 1396 1393 1391 1388 1386 1383 1381 1378 1375 1373 1370 1367 1365 1363 1360 1358 1356 1354 1352 1350 1348 1346 1345 1343
1443 1441 1439 1437 1435 1432 1430 1427 1424 1421 1418 1415 1412 1409 1406 1403 1400 1397 1394 1391 1389 1386 1384 1381 1378 1376 1373 1370 1368 1365 1362 1359 1357 1355 1353 1351 1349 1347 1345 1343 1341 1339 1338
1439 1437 1435 1433 1431 1428 1426 1423 1420 1417 1414 1411 1408 1405 1402 1399 1395 1393 1390 1387 1384 1381 1379 1376 1373 1370 1368 1366 1363 1360 1357 1354 1352 1350 1347 1345 1343 1341 1339 1337 1335 1333 1332
1436 1433 1431 1429 1426 1424 1421 1418 1416 1413 1410 1407 1404 1401 1397 1394 1391 1388 1385 1383 1380 1377 1374 1371 1368 1366 1363 1360 1358 1355 1352 1350 1347 1344 1342 1340 1338 1336 1334 1332 1330 1328 1327
1432 1429 1427 1424 1422 1420 1417 1414 1412 1409 1406 1403 1400 1396 1393 1390 1387 1384 1381 1378 1375 1372 1370 1367 1364 1361 1358 1355 1353 1350 1347 1345 1342 1340 1338 1335 1333 1331 1329 1327 1325 1323 1322
1428 1425 1423 1420 1418 1415 1413 1410 1407 1404 1401 1398 1395 1392 1389 1386 1383 1380 1377 1374 1371 1368 1365 1362 1359 1357 1353 1350 1347 1345 1342 1340 1337 1335 1333 1330 1328 1326 1324 1322 1320 1319 1317